Location: Tel Aviv
(32.0670°N, 34.7670°E)
Time: 13:34:54
(UTC+03:00)

Tiros 1 - Pass Details

Date: 22 January 2022
Orbit: 629 x 663 km, 48.4° (Epoch: 27 May)

Event Time Altitude Azimuth Distance (km) Brightness Sun altitude
Rises 23:52:06 0° 265° (W) 2,987 - -77.5°
Reaches altitude 10° 23:54:50 10° 279° (W) 2,075 - -77.4°
Maximum altitude 23:58:43 24° 333° (NNW) 1,361 - -77.4°
Drops below altitude 10° 00:02:37 10° 28° (NNE) 2,070 - -77.3°
Sets 00:05:21 0° 42° (NE) 2,979 - -77.1°
